EA5DHO-13 Weather Reports


Display with metric or nautical units.
time (UTC)temp
F
wind
direction
speed
MPH
gust
MPH
rain 1hr
in
rain 24hr
in
rain mn
in
humidity
%
barometer
mb
20260510051503 56 232 4.0 7.0 0.01 0.70 0.01 94 1015.4
20260510050521 56 232 5.0 7.0 0.01 0.70 0.01 95 1015.3
20260510045519 57 248 2.0 4.0 0.01 0.70 0.01 96 1015.4
20260510044514 57 248 2.0 2.0 0.01 0.70 0.01 96 1015.3
20260510043450 57 225 2.0 2.0 0.01 0.70 0.01 96 1015.3
20260510042447 57 0.0 0.0 0.01 0.70 0.01 96 1015.2
20260510041443 57 218 2.0 4.0 0.00 0.69 0.00 96 1015.3
20260510040441 57 270 2.0 2.0 0.00 0.69 0.00 95 1015.3
20260510035437 57 270 2.0 4.0 0.00 0.69 0.00 95 1015.2
20260510034434 58 248 2.0 2.0 0.00 0.69 0.00 95 1015.3
20260510033432 58 0.0 0.0 0.00 0.69 0.00 95 1015.2
20260510032429 58 0.0 0.0 0.00 0.69 0.00 95 1015.2
20260510031424 58 225 2.0 4.0 0.00 0.69 0.00 95 1015.1
20260510030421 58 248 1.0 4.0 0.00 0.69 0.00 95 1015.1
20260510025418 58 248 1.0 2.0 0.00 0.69 0.00 95 1015.2
20260510024415 58 0.0 0.0 0.00 0.69 0.00 95 1015.3
20260510023533 58 0.0 2.0 0.00 0.69 0.00 95 1015.2
20260510022508 58 0.0 0.0 0.00 0.69 0.00 95 1015.4
20260510021548 58 270 0.0 2.0 0.00 0.69 0.00 95 1015.4
20260510020502 59 0.0 0.0 0.00 0.69 0.00 95 1015.3
20260510015519 59 270 1.0 2.0 0.00 0.69 0.00 95 1015.2
20260510014456 59 270 1.0 2.0 0.00 0.69 0.00 95 1015.1
20260510013512 59 270 1.0 2.0 0.00 0.69 0.00 95 1015.2
20260510012449 59 270 1.0 2.0 0.00 0.69 0.00 94 1015.2
20260510011506 59 248 2.0 2.0 0.00 0.69 0.00 94 1015.3
20260510010443 59 208 2.0 4.0 0.00 0.69 0.00 94 1015.5
20260510005501 59 253 3.0 4.0 0.00 0.69 0.00 94 1015.6
20260510004436 60 263 2.0 4.0 0.00 0.69 0.00 93 1015.8
20260510003433 60 248 2.0 2.0 0.00 0.69 0.00 93 1015.7
20260510002451 60 257 3.0 4.0 0.00 0.69 0.00 93 1015.9
20260510001426 60 255 2.0 4.0 0.00 0.69 0.00 93 1016.0
20260510000444 61 270 2.0 2.0 0.00 0.69 0.00 93 1015.9
20260509235420 61 270 3.0 4.0 0.00 0.69 0.00 92 1015.9
20260509234418 61 234 3.0 4.0 0.00 0.69 0.00 92 1016.0
20260509233513 61 270 3.0 4.0 0.00 0.69 0.00 91 1016.0
20260509232510 61 250 2.0 4.0 0.00 0.69 0.00 91 1016.2
20260509231507 61 270 3.0 4.0 0.00 0.69 0.00 91 1016.2
20260509230504 61 225 2.0 2.0 0.00 0.69 0.00 90 1016.2
20260509225501 62 203 2.0 2.0 0.00 0.69 0.00 90 1016.3
20260509224457 62 203 1.0 2.0 0.00 0.69 0.00 90 1016.2
20260509223454 61 0.0 0.0 0.00 0.69 0.00 90 1016.2
20260509222452 62 225 1.0 2.0 0.00 0.69 0.00 90 1016.3
20260509221448 61 0.0 0.0 0.00 0.69 0.00 89 1016.3
20260509220445 62 255 2.0 4.0 0.00 0.69 0.00 89 1016.7
20260509215441 62 270 2.0 4.0 0.00 0.69 0.69 88 1016.7
20260509214438 62 270 2.0 4.0 0.00 0.69 0.69 87 1016.8
20260509213435 62 158 1.0 2.0 0.00 0.69 0.69 87 1016.5
20260509212433 62 158 1.0 2.0 0.00 0.69 0.69 87 1016.3
20260509211449 62 0.0 0.0 0.00 0.69 0.69 86 1016.2
20260509210425 62 135 2.0 2.0 0.00 0.69 0.69 86 1015.9
20260509205423 62 120 2.0 4.0 0.00 0.69 0.69 86 1016.1
20260509204420 62 131 2.0 4.0 0.00 0.69 0.69 86 1016.1
20260509203417 62 139 1.0 4.0 0.00 0.69 0.69 85 1016.1
20260509202514 62 0.0 0.0 0.00 0.69 0.69 85 1016.0
20260509201509 62 135 1.0 2.0 0.00 0.69 0.69 85 1015.8
20260509200528 63 128 2.0 4.0 0.00 0.69 0.69 84 1015.7
20260509195503 63 141 1.0 4.0 0.00 0.69 0.69 84 1015.5
20260509194500 63 158 0.0 2.0 0.00 0.69 0.69 84 1015.3
20260509193456 63 158 2.0 2.0 0.00 0.69 0.69 83 1015.5
20260509192454 63 113 1.0 2.0 0.00 0.69 0.69 83 1015.3
20260509191450 63 0.0 0.0 0.00 0.69 0.69 83 1015.0
20260509190446 63 113 1.0 4.0 0.00 0.69 0.69 83 1014.8
20260509185443 63 103 2.0 4.0 0.00 0.69 0.69 83 1014.7
20260509184440 63 124 2.0 4.0 0.00 0.69 0.69 83 1014.5
20260509183437 63 90 5.0 7.0 0.00 0.69 0.69 82 1014.2
20260509182433 63 68 5.0 9.0 0.00 0.69 0.69 82 1014.3
20260509181431 63 68 4.0 6.0 0.00 0.69 0.69 83 1014.3
20260509180427 63 96 6.0 8.0 0.00 0.69 0.69 82 1014.2
20260509175424 64 129 5.0 8.0 0.00 0.69 0.69 81 1014.1
20260509174421 65 83 5.0 9.0 0.00 0.69 0.69 79 1013.9
20260509173419 65 105 6.0 9.0 0.00 0.69 0.69 77 1013.7
20260509172555 65 97 6.0 11.0 0.00 0.69 0.69 77 1013.6
20260509171511 65 81 8.0 11.0 0.00 0.69 0.69 77 1013.5
20260509170510 65 83 8.0 11.0 0.00 0.69 0.69 78 1013.4
20260509165505 66 107 4.0 8.0 0.00 0.69 0.69 77 1013.5
20260509164502 65 94 6.0 9.0 0.00 0.69 0.69 77 1013.4
20260509163500 65 64 6.0 8.0 0.00 0.69 0.69 76 1013.4
20260509162457 65 131 6.0 9.0 0.00 0.69 0.69 78 1013.6
20260509161452 65 77 6.0 11.0 0.00 0.69 0.69 79 1013.5
20260509160449 66 65 5.0 8.0 0.00 0.69 0.69 77 1013.6
20260509155446 66 85 3.0 6.0 0.00 0.69 0.69 77 1013.5
20260509154442 66 104 5.0 8.0 0.00 0.69 0.69 77 1013.7
20260509153439 66 46 2.0 2.0 0.00 0.69 0.69 78 1013.6
20260509152436 65 41 3.0 4.0 0.00 0.69 0.69 78 1013.8
20260509151434 65 27 3.0 7.0 0.00 0.69 0.69 80 1013.7
20260509150429 64 37 4.0 7.0 0.00 0.69 0.69 81 1013.6
20260509145426 64 34 2.0 7.0 0.00 0.69 0.69 83 1013.8
20260509144423 64 128 2.0 6.0 0.00 0.69 0.69 87 1013.7
20260509143420 62 5 4.0 7.0 0.00 0.69 0.69 91 1013.8
20260509142418 62 81 1.0 4.0 0.00 0.69 0.69 94 1013.8
20260509141513 61 49 3.0 6.0 0.00 0.69 0.69 95 1014.0
20260509140531 62 66 1.0 2.0 0.00 0.69 0.69 95 1013.9
20260509135508 61 0.0 0.0 0.00 0.69 0.69 95 1013.9
20260509134525 61 0.0 2.0 0.00 0.69 0.69 96 1013.9
20260509133501 60 184 1.0 2.0 0.01 0.69 0.69 96 1014.0
20260509132518 60 68 1.0 2.0 0.01 0.69 0.69 96 1013.6
20260509131456 60 76 3.0 7.0 0.02 0.69 0.69 96 1013.1
20260509130452 60 45 3.0 7.0 0.05 0.69 0.69 96 1013.5
20260509125448 60 33 1.0 2.0 0.07 0.69 0.69 96 1014.1
20260509124444 60 45 1.0 4.0 0.08 0.69 0.69 96 1014.5
20260509123442 60 253 3.0 6.0 0.08 0.67 0.67 96 1014.9
20260509122439 59 270 4.0 7.0 0.11 0.67 0.67 96 1015.0
20260509121435 59 255 3.0 4.0 0.12 0.66 0.66 96 1015.2
20260509120433 60 270 3.0 4.0 0.11 0.64 0.64 95 1015.3
20260509115430 59 248 2.0 4.0 0.12 0.61 0.61 95 1015.4
20260509114447 59 225 2.0 4.0 0.13 0.60 0.60 95 1015.4
20260509113502 59 270 3.0 6.0 0.14 0.59 0.59 95 1015.4
20260509112419 59 248 4.0 4.0 0.13 0.57 0.57 95 1015.1
20260509111416 60 262 4.0 7.0 0.12 0.54 0.54 95 1015.0
20260509110513 60 262 1.0 4.0 0.12 0.53 0.53 95 1014.7
20260509105509 60 315 2.0 4.0 0.13 0.50 0.50 94 1014.5
20260509104506 60 225 1.0 2.0 0.13 0.47 0.47 94 1014.7
20260509103523 60 248 2.0 4.0 0.13 0.45 0.45 94 1014.8
20260509102500 59 0.0 2.0 0.15 0.44 0.44 94 1014.6
20260509101456 60 0 2.0 4.0 0.18 0.43 0.43 94 1014.1
20260509100515 60 45 2.0 4.0 0.22 0.41 0.41 94 1014.2
20260509095451 60 352 2.0 4.0 0.20 0.37 0.37 93 1013.9
20260509094447 60 45 0.0 2.0 0.20 0.34 0.34 93 1014.2
20260509093445 59 44 2.0 4.0 0.21 0.32 0.32 93 1013.9
20260509092440 60 45 0.0 2.0 0.22 0.28 0.28 92 1013.7
20260509091437 60 23 2.0 4.0 0.22 0.25 0.25 92 1013.9
20260509090435 60 29 2.0 4.0 0.18 0.19 0.19 91 1014.0
20260509084427 60 338 1.0 4.0 0.14 0.14 0.14 89 1014.6
20260509083424 60 0 2.0 4.0 0.11 0.11 0.11 88 1014.6
20260509082421 61 52 2.0 4.0 0.06 0.06 0.06 87 1014.6
20260509081418 61 315 0.0 2.0 0.02 0.02 0.02 85 1014.6
20260509080536 62 348 1.0 2.0 0.01 0.01 0.01 84 1014.3
20260509075511 62 57 1.0 4.0 0.00 0.00 0.00 83 1014.3
20260509074508 62 248 4.0 6.0 0.00 0.00 0.00 83 1014.6
20260509073505 62 15 1.0 2.0 0.00 0.00 0.00 82 1014.4
20260509072502 62 0.0 0.0 0.00 0.00 0.00 83 1014.7
20260509071459 62 261 2.0 2.0 0.00 0.00 0.00 83 1014.8
20260509070455 62 248 2.0 2.0 0.00 0.00 0.00 83 1014.8
20260509065452 62 0.0 0.0 0.00 0.00 0.00 84 1014.3
20260509064450 62 338 0.0 2.0 0.00 0.00 0.00 84 1013.7
20260509063445 62 270 1.0 2.0 0.00 0.00 0.00 85 1013.2
20260509062442 61 319 2.0 4.0 0.00 0.00 0.00 85 1013.1
20260509061439 61 9 2.0 6.0 0.00 0.00 0.00 85 1013.1
20260509060436 61 251 2.0 4.0 0.00 0.00 0.00 85 1013.2
20260509055433 61 345 2.0 4.0 0.00 0.00 0.00 85 1014.2
20260509054430 61 0.0 2.0 0.00 0.00 0.00 86 1014.6
20260509053427 61 0 1.0 2.0 0.00 0.00 0.00 86 1014.2
20260509052423 61 183 1.0 2.0 0.00 0.00 0.00 86 1014.0